Location: Newcastle Observatory
(43.9158°N, 78.5831°W)
Time: 09:35:40
(UTC-04:00)

Amateur Radio Satellites - All Passes

Search period start: 18 April 2014 09:05
Search period end: 19 April 2014 09:05
Location: Newcastle Observatory, 43.9158°N, 78.5831°W

Satellite Date Start Highest point End Downlink Frequencies (MHz)
Time Altitude Azimuth
HO-68 18 Apr 09:07:30 09:12:13 18° 89° (E) 09:16:53 435.675 MHz FM
PCSat 18 Apr 09:12:36 09:17:01 25° 44° (NE) 09:21:25 145.825 MHz
AO-40 18 Apr 09:17:30 10:26:53 16° 229° (SW) 12:21:57 Beacon 2401.320
JAS-2 18 Apr 09:22:41 09:27:36 40° 291° (WNW) 09:32:53 435.800 - 435.900 CW/SSB, 435.910 FM
KITSAT 1 18 Apr 09:43:26 09:48:36 18° 19° (NNE) 09:53:45 435.175 FM
Sapphire 18 Apr 10:10:25 10:15:46 56° 55° (NE) 10:21:04 437.095 MHz 1200 baud AX-25 AFSK
FUNcube-1 18 Apr 10:42:29 10:44:36 13° 91° (E) 10:46:45 145.950 - 145.970 MHz USB
Saudisat 1A 18 Apr 10:45:34 10:47:02 12° 108° (ESE) 10:48:31 436.775 MHz
HO-68 18 Apr 10:53:32 11:00:45 86° 288° (WNW) 11:07:56 435.675 MHz FM
Oscar 11 18 Apr 10:54:57 10:59:16 57° 100° (E) 11:03:33 145.825 FM, Beacon 2401.500 USB
PCSat 18 Apr 10:55:30 11:00:53 63° 244° (WSW) 11:06:12 145.825 MHz
RS-15 18 Apr 11:13:12 11:22:25 29° 340° (NNW) 11:31:34 29.354 - 29.394 USB, Beacon 29.352 USB
KITSAT 1 18 Apr 11:38:45 11:46:28 44° 46° (NE) 11:54:06 435.175 FM
Sapphire 18 Apr 11:54:38 11:58:47 23° 253° (WSW) 12:02:55 437.095 MHz 1200 baud AX-25 AFSK
FUNcube-1 18 Apr 12:17:13 12:21:23 57° 287° (WNW) 12:25:36 145.950 - 145.970 MHz USB
Saudisat 1A 18 Apr 12:21:30 12:25:59 84° 305° (NW) 12:30:29 436.775 MHz
Oscar 11 18 Apr 12:32:27 12:35:00 16° 298° (WNW) 12:37:34 145.825 FM, Beacon 2401.500 USB
HO-68 18 Apr 12:42:43 12:47:28 19° 308° (NW) 12:52:14 435.675 MHz FM
AO-27 18 Apr 12:50:13 12:52:26 13° 57° (ENE) 12:54:40 436.795 MHz FM
ITAMSAT 1 18 Apr 13:00:24 13:03:21 16° 59° (ENE) 13:06:18 435.822 SSB
Oscar 19 18 Apr 13:06:16 13:10:41 30° 65° (ENE) 13:15:07 437.125 CW, 437.150 USB
Oscar 16 18 Apr 13:13:59 13:18:40 37° 67° (ENE) 13:23:23 437.025 USB, Beacon 2401.1428
AO-Echo 18 Apr 13:19:25 13:22:51 18° 61° (ENE) 13:26:14 ?
RS-15 18 Apr 13:30:32 13:39:27 27° 16° (NNE) 13:48:23 29.354 - 29.394 USB, Beacon 29.352 USB
KITSAT 1 18 Apr 13:34:16 13:42:01 51° 247° (WSW) 13:49:42 435.175 FM
Uribyol 2 18 Apr 13:46:53 13:51:39 40° 68° (ENE) 13:56:26 436.500 FM
Saudisat 1A 18 Apr 14:03:34 14:06:17 16° 325° (NW) 14:09:00 436.775 MHz
AO-7 18 Apr 14:12:00 14:15:33 14° 41° (NE) 14:19:06 29.400 - 29.500 MHz
Gurwin Techsat 1B 18 Apr 14:13:01 14:17:02 23° 62° (ENE) 14:21:04 435.225 FM
AO-27 18 Apr 14:25:57 14:31:09 85° 74° (ENE) 14:36:23 436.795 MHz FM
ITAMSAT 1 18 Apr 14:37:01 14:42:12 79° 256° (WSW) 14:47:25 435.822 SSB
Oscar 19 18 Apr 14:45:11 14:49:54 37° 263° (W) 14:54:41 437.125 CW, 437.150 USB
Oscar 16 18 Apr 14:53:38 14:58:04 29° 265° (W) 15:02:33 437.025 USB, Beacon 2401.1428
AO-Echo 18 Apr 14:55:54 15:01:07 67° 258° (WSW) 15:06:15 ?
TMSAT-1 18 Apr 15:00:51 15:05:46 41° 68° (ENE) 15:10:43 436.925 FM
JAS-1B 18 Apr 15:01:27 15:08:07 31° 64° (ENE) 15:13:54 435.800 - 435.900 CW/SSB
Uosat F 18 Apr 15:14:56 15:18:43 22° 62° (ENE) 15:22:30 435.120 FM
Uribyol 2 18 Apr 15:26:53 15:31:14 27° 265° (W) 15:35:36 436.500 FM
RS-15 18 Apr 15:43:55 15:54:43 59° 47° (NE) 16:05:42 29.354 - 29.394 USB, Beacon 29.352 USB
Gurwin Techsat 1B 18 Apr 15:51:27 15:56:38 54° 260° (W) 16:01:51 435.225 FM
AO-7 18 Apr 15:58:33 16:06:27 52° 63° (ENE) 16:14:23 29.400 - 29.500 MHz
OPAL 18 Apr 15:59:21 16:04:32 63° 104° (ESE) 16:09:42 ?
AO-27 18 Apr 16:09:16 16:11:20 12° 272° (W) 16:13:24 436.795 MHz FM
SO-50 18 Apr 16:24:24 16:28:49 61° 121° (ESE) 16:33:16 436.795 FM
ISS 18 Apr 16:36:50 16:40:08 64° 144° (SE) 16:43:28 145.800 FM
TMSAT-1 18 Apr 16:41:21 16:45:49 27° 266° (W) 16:50:19 436.925 FM
JAS-1B 18 Apr 16:50:27 16:58:31 57° 259° (WSW) 17:05:17 435.800 - 435.900 CW/SSB
Uosat F 18 Apr 16:52:17 16:57:10 50° 260° (W) 17:02:04 435.120 FM
Hamsat 18 Apr 17:11:15 17:11:48 10° 60° (ENE) 17:12:20 145.90 MHz
UOSAT-12 18 Apr 17:16:26 17:18:13 12° 107° (ESE) 17:20:01 437.025 FM, 437.400 FM
OPAL 18 Apr 17:39:16 17:42:57 20° 301° (WNW) 17:46:38 ?
AO-7 18 Apr 17:51:53 17:59:26 38° 262° (W) 18:07:03 29.400 - 29.500 MHz
JAS-2 18 Apr 17:54:16 17:57:16 15° 59° (ENE) 18:00:10 435.800 - 435.900 CW/SSB, 435.910 FM
RS-15 18 Apr 17:56:41 18:06:46 45° 250° (WSW) 18:17:09 29.354 - 29.394 USB, Beacon 29.352 USB
SO-50 18 Apr 18:06:18 18:09:46 21° 320° (NW) 18:13:16 436.795 FM
ISS 18 Apr 18:14:05 18:17:06 30° 343° (NNW) 18:20:07 145.800 FM
STRAND 1 18 Apr 18:37:50 18:39:53 12° 88° (E) 18:41:56 ?
Hamsat 18 Apr 18:42:54 18:47:06 85° 257° (WSW) 18:51:22 145.90 MHz
UOSAT-12 18 Apr 18:53:06 18:57:40 83° 305° (NW) 19:02:21 437.025 FM, 437.400 FM
Saudisat 1A 18 Apr 19:08:25 19:11:37 19° 38° (NE) 19:14:46 436.775 MHz
SO-67 18 Apr 19:13:33 19:16:45 35° 72° (ENE) 19:19:59 435.3500 MHz FM
JAS-2 18 Apr 19:35:54 19:41:49 84° 256° (WSW) 19:47:12 435.800 - 435.900 CW/SSB, 435.910 FM
HO-68 18 Apr 19:38:52 19:43:26 19° 52° (NE) 19:48:00 435.675 MHz FM
ISS 18 Apr 19:51:53 19:54:34 21° 3° (N) 19:57:14 145.800 FM
STRAND 1 18 Apr 20:14:36 20:19:43 83° 286° (WNW) 20:24:48 ?
UOSAT-12 18 Apr 20:35:39 20:38:34 16° 326° (NW) 20:41:31 437.025 FM, 437.400 FM
Saudisat 1A 18 Apr 20:47:17 20:51:42 70° 238° (WSW) 20:56:02 436.775 MHz
SO-67 18 Apr 20:48:06 20:50:04 14° 268° (W) 20:52:02 435.3500 MHz FM
HO-68 18 Apr 21:22:58 21:30:06 82° 72° (ENE) 21:37:18 435.675 MHz FM
JAS-2 18 Apr 21:26:32 21:27:36 11° 272° (W) 21:28:39 435.800 - 435.900 CW/SSB, 435.910 FM
ISS 18 Apr 21:28:41 21:31:55 42° 23° (NNE) 21:35:08 145.800 FM
FUNcube-1 18 Apr 21:41:14 21:43:23 14° 62° (ENE) 21:45:32 145.950 - 145.970 MHz USB
Oscar 11 18 Apr 21:51:19 21:55:30 53° 73° (ENE) 21:59:43 145.825 FM, Beacon 2401.500 USB
STRAND 1 18 Apr 21:56:11 21:58:06 12° 304° (WNW) 22:00:01 ?
MaSat-1 18 Apr 22:10:34 22:13:24 44° 115° (ESE) 22:15:55 437.345 MHz
ISS 18 Apr 23:05:34 23:08:37 32° 221° (SW) 23:11:39 145.800 FM
HO-68 18 Apr 23:13:48 23:18:36 19° 270° (W) 23:23:27 435.675 MHz FM
FUNcube-1 18 Apr 23:15:12 23:19:22 59° 259° (W) 23:23:30 145.950 - 145.970 MHz USB
SO-50 18 Apr 23:15:13 23:18:03 16° 35° (NE) 23:20:55 436.795 FM
Oscar 11 18 Apr 23:29:35 23:32:02 15° 269° (W) 23:34:29 145.825 FM, Beacon 2401.500 USB
PCSat 18 Apr 23:58:37 00:01:04 13° 103° (ESE) 00:03:30 145.825 MHz
Sapphire 19 Apr 00:53:53 00:58:49 38° 112° (ESE) 01:03:48 437.095 MHz 1200 baud AX-25 AFSK
SO-50 19 Apr 00:54:42 00:59:22 81° 55° (NE) 01:04:04 436.795 FM
Oscar 16 19 Apr 01:26:36 01:28:06 11° 87° (E) 01:29:36 437.025 USB, Beacon 2401.1428
PCSat 19 Apr 01:38:15 01:43:40 89° 302° (WNW) 01:49:08 145.825 MHz
OPAL 19 Apr 01:39:04 01:42:31 19° 58° (ENE) 01:46:00 ?
UOSAT-12 19 Apr 01:42:00 01:45:39 22° 39° (NE) 01:49:18 437.025 FM, 437.400 FM
Uribyol 2 19 Apr 02:00:11 02:02:09 12° 88° (E) 02:04:06 436.500 FM
KITSAT 1 19 Apr 02:10:59 02:16:39 21° 102° (ESE) 02:22:19 435.175 FM
Oscar 10/S400 19 Apr 02:32:01 02:48:45 24° 129° (SE) 03:29:15 145.825 - 145.975 CW/USB, Beacon 145.810 USB
SO-50 19 Apr 02:37:12 02:39:19 13° 252° (WSW) 02:41:27 436.795 FM
Sapphire 19 Apr 02:37:18 02:42:16 36° 311° (NW) 02:47:16 437.095 MHz 1200 baud AX-25 AFSK
AO-27 19 Apr 02:38:08 02:42:31 27° 95° (E) 02:46:52 436.795 MHz FM
ITAMSAT 1 19 Apr 02:48:49 02:53:29 33° 96° (E) 02:58:07 435.822 SSB
Oscar 19 19 Apr 02:54:47 03:00:00 71° 102° (ESE) 03:05:10 437.125 CW, 437.150 USB
AO-Echo 19 Apr 03:02:18 03:06:41 34° 96° (E) 03:10:57 ?
Oscar 16 19 Apr 03:02:57 03:08:11 89° 103° (ESE) 03:13:23 437.025 USB, Beacon 2401.1428
OPAL 19 Apr 03:15:56 03:20:54 64° 256° (WSW) 03:25:59 ?
TMSAT-1 19 Apr 03:16:42 03:19:28 14° 89° (E) 03:22:12 436.925 FM
UOSAT-12 19 Apr 03:21:33 03:26:16 67° 239° (WSW) 03:30:54 437.025 FM, 437.400 FM
PCSat 19 Apr 03:24:08 03:27:52 19° 321° (NW) 03:31:38 145.825 MHz
Uribyol 2 19 Apr 03:37:05 03:42:18 86° 285° (WNW) 03:47:29 436.500 FM
AO-7 19 Apr 04:01:16 04:04:40 13° 86° (E) 04:08:04 29.400 - 29.500 MHz
KITSAT 1 19 Apr 04:02:54 04:11:02 87° 302° (WNW) 04:19:13 435.175 FM
Gurwin Techsat 1B 19 Apr 04:06:07 04:11:21 56° 100° (E) 04:16:32 435.225 FM
AO-27 19 Apr 04:17:20 04:22:09 40° 292° (WNW) 04:26:56 436.795 MHz FM
ITAMSAT 1 19 Apr 04:28:21 04:32:57 33° 294° (WNW) 04:37:31 435.822 SSB
JAS-1B 19 Apr 04:34:08 04:39:15 33° 97° (E) 04:44:28 435.800 - 435.900 CW/SSB
Oscar 19 19 Apr 04:35:28 04:38:46 17° 300° (WNW) 04:42:03 437.125 CW, 437.150 USB
AO-Echo 19 Apr 04:41:19 04:45:21 27° 294° (WNW) 04:49:19 ?
Oscar 16 19 Apr 04:44:14 04:46:48 14° 302° (WNW) 04:49:22 437.025 USB, Beacon 2401.1428
TMSAT-1 19 Apr 04:54:41 04:59:59 77° 286° (WNW) 05:05:16 436.925 FM
Uosat F 19 Apr 04:58:32 05:03:19 44° 99° (E) 05:08:05 435.120 FM
Uribyol 2 19 Apr 05:18:44 05:20:59 13° 303° (WNW) 05:23:14 436.500 FM
Gurwin Techsat 1B 19 Apr 05:46:57 05:50:55 22° 298° (WNW) 05:54:52 435.225 FM
AO-7 19 Apr 05:50:38 05:58:57 69° 105° (ESE) 06:07:14 29.400 - 29.500 MHz
STRAND 1 19 Apr 05:54:23 05:58:18 23° 63° (ENE) 06:02:14 ?
KITSAT 1 19 Apr 06:00:52 06:07:36 28° 326° (NW) 06:14:22 435.175 FM
RS-15 19 Apr 06:11:14 06:20:14 29° 104° (ESE) 06:28:59 29.354 - 29.394 USB, Beacon 29.352 USB
JAS-1B 19 Apr 06:24:56 06:30:00 34° 295° (WNW) 06:35:07 435.800 - 435.900 CW/SSB
Hamsat 19 Apr 06:28:33 06:31:17 16° 91° (E) 06:34:00 145.90 MHz
MaSat-1 19 Apr 06:33:04 06:34:47 15° 55° (NE) 06:36:38 437.345 MHz
TMSAT-1 19 Apr 06:37:10 06:39:01 12° 304° (NW) 06:40:52 436.925 FM
Uosat F 19 Apr 06:37:53 06:41:52 24° 296° (WNW) 06:45:50 435.120 FM
STRAND 1 19 Apr 07:32:13 07:37:10 50° 260° (W) 07:42:09 ?
AO-7 19 Apr 07:44:11 07:51:09 31° 305° (NW) 07:58:07 29.400 - 29.500 MHz
Sapphire 19 Apr 07:58:57 08:00:20 11° 29° (NNE) 08:01:44 437.095 MHz 1200 baud AX-25 AFSK
KITSAT 1 19 Apr 08:02:06 08:06:21 15° 355° (N) 08:10:36 435.175 FM
Hamsat 19 Apr 08:03:20 08:07:32 49° 287° (WNW) 08:11:45 145.90 MHz
SO-67 19 Apr 08:09:40 08:12:56 35° 97° (E) 08:16:10 435.3500 MHz FM
MaSat-1 19 Apr 08:10:34 08:13:13 29° 247° (WSW) 08:16:17 437.345 MHz
RS-15 19 Apr 08:20:04 08:31:24 82° 306° (NW) 08:42:26 29.354 - 29.394 USB, Beacon 29.352 USB
JAS-2 19 Apr 08:27:18 08:32:40 75° 103° (ESE) 08:38:32 435.800 - 435.900 CW/SSB, 435.910 FM
PCSat 19 Apr 08:42:21 08:46:17 20° 40° (NE) 08:50:11 145.825 MHz
HO-68 19 Apr 08:51:49 08:55:01 13° 86° (E) 08:58:12 435.675 MHz FM
